Regional Weather Roundup
Issued by NWS

Home | Current Version | Previous Version | Graphics & Text | Print | Product List | Glossary On
Versions: 1 2 3 4 5 6 7 8 9 10 11 12 13 14 15 16 17 18 19 20 21 22 23 24 25 26 27 28 29 30 31 32 33 34 35 36 37 38 39 40 41 42 43 44 45 46 47 48 49 50
000
ASUS43 KMPX 251201
RWRMN
WEATHER ROUNDUP FOR MINNESOTA
NATIONAL WEATHER SERVICE TWIN CITIES/CHANHASSEN MN
700 AM CDT TUE APR 25 2017


NOTE: "FAIR" INDICATES FEW OR NO CLOUDS BELOW 12,000 FEET WITH NO
SIGNIFICANT WEATHER AND/OR OBSTRUCTIONS TO VISIBILITY. N/A MEANS
CURRENT SKY AND/OR WEATHER CONDITIONS ARE NOT AVAILABLE.

MNZ060>063-068>070-251300-
   Twin Cities Metro

CITY           SKY/WX    TMP DP  RH WIND       PRES   REMARKS
TWIN CITIES    CLOUDY    57  38  48 SE6       29.49S
6HR MIN TEMP:  57; 6HR MAX TEMP:  62;

ST PAUL        CLOUDY    58  41  53 SE6       29.50R
CRYSTAL        CLOUDY    57  37  47 SE5       29.48R
BLAINE         MOCLDY    61  37  41 SE6       29.48S
LAKEVILLE      CLOUDY    55  39  54 CALM      29.50R
EDEN PRAIRIE   CLOUDY    52  45  77 SW9       29.49R
6HR MIN TEMP:  52; 6HR MAX TEMP:  62;

SOUTH ST PAUL  CLOUDY    58  37  46 CALM      29.50R
LAKE ELMO      CLOUDY    59  37  44 SE5       29.51S
$$
MNZ001>005-007-008-013>017-022>024-027-028-251300-
   Northwest Minnesota

CITY           SKY/WX    TMP DP  RH WIND       PRES   REMARKS
BEMIDJI        CLOUDY    35  35  99 N12G18    29.64R FOG     WCI  27
HALLOCK        CLOUDY    30  27  86 N17       29.79S WCI  18
ROSEAU         CLOUDY    30  27  86 N18       29.75S WCI  18
WARROAD        CLOUDY    30  27  86 N15       29.75R WCI  19
THIEF RVR FALL CLOUDY    30  29  96 N20G25    29.71R WCI  17
CROOKSTON      CLOUDY    32  30  93 N17       29.74R WCI  21
FOSSTON        CLOUDY    30  30 100 N14       29.67R FOG     WCI  20
DETROIT LAKES  FOG       36  36 100 N12G17    29.62S VSB 3/4
MOORHEAD       CLOUDY    32  30  93 N23       29.69R FOG     WCI  19
PARK RAPIDS    CLOUDY    40  36  86 N15G24    29.58F
MAHNOMEN       CLOUDY    33  32  99 N17G23    29.64S FOG     WCI  21
$$
MNZ006-009>011-018-025>026-251300-
   North Central Minnesota

CITY           SKY/WX    TMP DP  RH WIND       PRES   REMARKS
BAUDETTE       CLOUDY    32  29  88 N12       29.71R WCI  23
FLAG ISLAND    CLOUDY    30  27  86 NE21      29.77R WCI  17
INTL FALLS     LGT RAIN  35  32  88 N12       29.66S WCI  27
6HR MIN TEMP:  35; 6HR MAX TEMP:  36; 6HR PCP:  0.04;

WASKISH        CLOUDY    34  34 100 N7        29.68R WCI  28
BIG FORK       CLOUDY    36  34  93 N6        29.63R
LONGVILLE      CLOUDY    39  37  93 N5        29.59R
GRAND RAPIDS   LGT RAIN  39  37  92 N10       29.60R
CRANE LAKE     CLOUDY    36  34  93 N3        29.66R
ORR            CLOUDY    36  34  93 CALM      29.61R
COOK           CLOUDY    37  36  93 N5        29.62R
WALKER         CLOUDY    38  37  94 N8G16     29.61R
$$
MNZ012-019>021-037-251300-
   Northeast Minnesota

CITY           SKY/WX    TMP DP  RH WIND       PRES   REMARKS
DULUTH         CLOUDY    42  38  85 E7        29.56F
6HR MIN TEMP:  39; 6HR MAX TEMP:  42; 6HR PCP:  0.01;

ELY            CLOUDY    41  39  93 CALM      29.59S
HIBBING        CLOUDY    39  39 100 N6        29.58R
EVELETH        DRIZZLE   40  38  92 N3        29.59R
DULUTH HARBOR  CLOUDY    39  37  93 NE16      29.59F
TWO HARBORS    CLOUDY    45  39  81 NE7       29.57S
SILVER BAY     CLOUDY    43  39  87 CALM      29.60R
GRAND MARAIS     N/A     40  38  93 E6        29.63S
G MARAIS ARPRT DRIZZLE   39  34  81 N6        29.63S
$$
MNZ029>031-032-039>041-046>048-054>057-064-251300-
   West Central Minnesota

CITY           SKY/WX    TMP DP  RH WIND       PRES   REMARKS
FERGUS FALLS   CLOUDY    36  36 100 N16G23    29.62R
WHEATON        CLOUDY    34  32  93 NW21G26   29.67R FOG     WCI  22
MORRIS         CLOUDY    36  34  93 NW20G30   29.59R
ALEXANDRIA     FOG       40  40 100 N10       29.55S VSB 1/4
ELBOW LAKE     FOG       36  36 100 W16       29.60R VSB 1/2
WADENA         CLOUDY    41  39  93 N14       29.56S
GLENWOOD       FOG       43  43 100 NW12      29.55R VSB 1
APPLETON       CLOUDY    36  34  93 N17G26    29.60R
BENSON         CLOUDY    37  34  87 N18G24    29.59R FOG
ORTONVILLE     CLOUDY    34  30  86 N18G30    29.61R FOG     WCI  23
MADISON        CLOUDY    37  37 100 N22G29    29.60R FOG
WILLMAR        FOG       41  39  93 NW12      29.56R VSB 3/4
$$
MNZ033>034-036-042>043-049>051-058-059-251300-
   Central Minnesota

CITY           SKY/WX    TMP DP  RH WIND       PRES   REMARKS
ST CLOUD       CLEAR     46  43  89 N5        29.49S
6HR MIN TEMP:  45; 6HR MAX TEMP:  57; 6HR PCP: TRACE;

SAUK CENTRE    PTSUNNY   44  41  89 NW15      29.52S
PAYNESVILLE    CLOUDY    45  46 100 NW7       29.52R FOG
AITKIN         CLOUDY    43  36  75 NW6       29.55R
PINE RIVER     CLOUDY    39  39 100 N13       29.62R
BRAINERD       CLOUDY    42  38  85 N13       29.55R
STAPLES        CLOUDY    39  37  93 N9        29.55F
LONG PRAIRIE   CLOUDY    41  37  87 NW9       29.53F
LITTLE FALLS   PTCLDY    43  39  87 N7        29.51F
LITCHFIELD     FOG       46  45  93 NW9       29.52R VSB 1/4
BUFFALO        PTCLDY    46  43  88 SW6       29.51R
MAPLE LAKE     CLOUDY    47  46  96 W3        29.51R FOG
HUTCHINSON     CLOUDY    44  44 100 W9        29.53R FOG
$$
MNZ037-044-045-052-053-251300-
   East Central Minnesota

CITY           SKY/WX    TMP DP  RH WIND       PRES   REMARKS
PRINCETON      MOCLDY    46  43  87 N3        29.50S
MORA           CLOUDY    43  36  75 NE6       29.52F
CAMBRIDGE      CLOUDY    48  39  71 N3        29.48F
RUSH CITY      CLOUDY    45  40  83 NE3       29.51S
MOOSE LAKE     LGT RAIN  37  36  93 NE6       29.53S
HINCKLEY       CLOUDY    43  37  81 NE6       29.53R
CLOQUET        LGT RAIN  39  36  87 E8        29.56S
MCGREGOR       CLOUDY    39  37  93 NW6       29.57R
$$
MNZ071>073-080-081-089-090-097-098-251300-
   Southwest Minnesota

CITY           SKY/WX    TMP DP  RH WIND       PRES   REMARKS
MONTEVIDEO     CLOUDY    36  36 100 N16G26    29.58R FOG
GRANITE FALLS  CLOUDY    38  37  97 NW15      29.60R FOG
CANBY          CLOUDY    37  36  98 NW16      29.61R FOG
MARSHALL       CLOUDY    37  36  96 N17G23    29.58R FOG
REDWOOD FALLS  FOG       38  36  92 NW18G24   29.55S VSB 3/4
OLIVIA         FOG       39  37  93 NW9G17    29.55R VSB 3/4
PIPESTONE      FOG       37  34  87 N14       29.55F VSB 1
WINDOM         FOG       39  37  93 NW14      29.55R VSB 3/4
WORTHINGTON    FOG       37  37 100 N17       29.55S VSB 3/4
JACKSON        FOG       37  37 100 NW13G21   29.54S VSB 1/4
TRACY          FOG       38  38 100 NW16G22   29.58R VSB 1/2
SLAYTON        FOG       36  36 100 NW14      29.57R VSB 3/4
$$
MNZ065>067-074>077-082>085-091>093-251300-
   South Central Minnesota

CITY           SKY/WX    TMP DP  RH WIND       PRES   REMARKS
MANKATO        CLOUDY    41  40  96 NW12      29.54R FOG
NEW ULM        CLOUDY    39  37  93 NW15      29.54R FOG
ST JAMES       CLOUDY    39  39 100 NW15      29.55S FOG
FAIRMONT       CLOUDY    42  40  92 NW17      29.54R FOG
GLENCOE        CLOUDY    45  45 100 W10       29.51R FOG
FARIBAULT      CLOUDY    52  46  82 W7        29.51S
OWATONNA       PTCLDY    54  37  54 SW8       29.52R
WASECA         CLOUDY    45  41  87 W9        29.54R
ALBERT LEA     PTCLDY    54  36  50 S7        29.51S
$$
MNZ078>079-086>088-094>096-251300-
   Southeast Minnesota

CITY           SKY/WX    TMP DP  RH WIND       PRES   REMARKS
ROCHESTER      CLEAR     54  37  52 S14       29.54R
6HR MIN TEMP:  53; 6HR MAX TEMP:  58;

RED WING       CLOUDY    61  32  33 SE7       29.51S
STANTON        MOCLDY    57  39  51 SW5       29.49S
DODGE CENTER   CLEAR     54  37  54 S8        29.52R
WINONA         CLOUDY    55  37  50 SE5       29.55S
AUSTIN         CLEAR     54  37  54 SE6       29.52S
PRESTON        CLEAR     53  35  50 S9        29.55S
$$
ABBREVIATIONS USED IN REMARKS
   TC - TEMPERATURES IN CELSIUS
  WCI - WIND CHILL INDEX
   HX - HEAT INDEX
  VSB - VISIBILITY
$$




USA.gov is the U.S. government's official web portal to all federal, state and local government web resources and services.